Orbital Elements at Epoch 2459200.5 (2020-Dec-17.0) TDB
Reference: JPL 15 (heliocentric ecliptic J2000)
Element | Value | Uncertainty (1-sigma) | Units |
e | .2105483339658445 | 5.3378e-08 | |
a | 2.407197830116479 | 1.2062e-08 | au |
q | 1.900366337459258 | 1.2476e-07 | au |
i | 2.117720081299608 | 4.6713e-06 | deg |
node | 164.6090913517203 | 0.00014045 | deg |
peri | 237.27999040997 | 0.00014115 | deg |
M | 147.3112456313869 | 1.3475e-05 | deg |
tp | 2458642.287570137928 (2019-Jun-07.78757014) | 4.9201e-05 | TDB |
period | 1364.162483923286 3.73 | 1.0253e-05 2.807e-08 | d yr |
n | .263898182395877 | 1.9835e-09 | deg/d |
Q | 2.914029322773699 | 1.4601e-08 | au |
|
| | Orbit Determination Parameters
Additional Information
|